Regional Weather Roundup
Issued by NWS

Home | Current Version | Previous Version | Graphics & Text | Print | Product List | Glossary Off
Versions: 1 2 3 4 5 6 7 8 9 10 11 12 13 14 15 16 17 18 19 20 21 22 23 24 25 26 27 28 29 30 31 32 33 34 35 36 37 38 39 40 41 42 43 44 45 46 47 48 49 50

844
ASUS45 KTFX 201410
RWRMT
MONTANA REGIONAL WEATHER ROUNDUP
NATIONAL WEATHER SERVICE GREAT FALLS MT
800 AM MDT FRI OCT 20 2017

NOTE: "FAIR" INDICATES FEW OR NO CLOUDS BELOW 12000 FEET WITH NO
SIGNIFICANT WEATHER AND/OR OBSTRUCTIONS TO VISIBILITY.

MTZ001>007-043-201500-
WEST OF THE DIVIDE

CITY           SKY/WX    TMP DP  RH WIND       PRES   REMARKS
KALISPELL      LGT RAIN  48  39  71 W8        29.39F
MISSOULA       CLOUDY    47  37  68 NW10      29.44R
BUTTE          CLOUDY    40  21  46 SW3       29.39F
MULLAN PASS    SNOW      29  27  92 VRB5      29.48S VSB 1/2
DEER LODGE       N/A     46  19  34 W6        29.36F
EUREKA           N/A     45  41  87 MISG      29.40S
HAMILTON         N/A     50  32  50 W10G17    29.42R
LIBBY            N/A     43  43 100 CALM      29.43S
PLAINS           N/A     47  35  63 CALM      29.52R
THOMPSON FALLS   N/A     43  41  93 CALM      29.58
$$

MTZ008-052>055-201500-
SOUTHWEST MONTANA

CITY           SKY/WX    TMP DP  RH WIND       PRES   REMARKS
BOZEMAN        CLOUDY    60  27  28 S14G23    29.39F
DILLON         MOCLDY    50  22  33 SW8       29.40F
W YELLOWSTONE  CLOUDY    27  19  74 CALM      29.57F
ENNIS          CLOUDY    48  27  43 S13       29.49F
THREE FORKS      N/A     60  26  27 S14       29.44F
TWIN BRIDGES     N/A     50  17  27 CALM      29.47F
$$

MTZ009-010-012-014-046-048-049-054-201500-
EAST SLOPES AND CENTRAL MONTANA

CITY           SKY/WX    TMP DP  RH WIND       PRES   REMARKS
CUT BANK       CLOUDY    43  24  47 NW14      29.29R
GREAT FALLS    CLOUDY    58  17  20 S12       29.29F
MALMSTROM AFB  CLOUDY    55  20  26 S10       29.29F
HELENA         CLOUDY    48  25  40 CALM      29.32F
BOWMANS CRNR     N/A     52  18  26 S12       29.28F
CHOTEAU          N/A     52  21  30 S8        29.29F
FAIRFIELD        N/A     53  20  28 SE8       29.27F
POWER          MOCLDY    49  21  32 SE5       29.28F
RAYNESFORD     MOCLDY    52  21  29 CALM      29.33F
ULM              N/A     52  22  30 S12       29.29F
$$

MTZ011-013-016-021-045-047-050-051-201500-
NORTH CENTRAL MONTANA

CITY           SKY/WX    TMP DP  RH WIND       PRES   REMARKS
HAVRE          CLOUDY    40  32  73 E7        29.28F
LEWISTOWN      CLOUDY    58  18  21 CALM      29.37F
N BAR RANCH      N/A     59  14  17 SW14      29.42F
CHINOOK          N/A     36  30  80 E3        29.29F
DENTON           N/A     51  19  28 CALM      29.31F
GEYSER         MOCLDY    56  18  22 S15       29.33F
GRASS RANGE    MOCLDY    64  15  14 S15       29.33F
JUDITH GAP       N/A     43  19  38 S8        29.40F
WINIFRED         N/A     60  16  18 SE13      29.33F
$$

MTZ017>020-022>027-061-062-201500-
NORTHEAST MONTANA

CITY           SKY/WX    TMP DP  RH WIND       PRES   REMARKS
GLASGOW        CLOUDY    47  30  51 E13       29.33F
JORDAN           N/A     40  27  59 CALM      29.36F
SIDNEY         CLOUDY    35  31  85 S5        29.39F
WOLF POINT     CLOUDY    34  26  72 CALM      29.36F
MALTA          CLEAR     34  30  86 E3        29.32F
PLENTYWOOD       N/A     48  28  46 CALM      29.35F
POPLAR           N/A     43  28  56 CALM      29.37F
$$

MTZ028>42-056>058-201500-
SOUTHCENTRAL AND SOUTHEAST MONTANA

CITY           SKY/WX    TMP DP  RH WIND       PRES   REMARKS
BAKER          CLOUDY    35  29  78 SE5       29.45F
BILLINGS       CLOUDY    51  23  33 SW12      29.41F
LIVINGSTON     CLOUDY    60  26  27 SW17      29.42F
MILES CITY     CLOUDY    40  31  70 S9        29.42F
BIG TIMBER     CLEAR     54  18  24 S7        29.44F
FORSYTH          N/A     37  30  75 CALM      29.40F
HARLOWTON        N/A     48  18  31 MISG      29.39F
$$

REGIONAL REPORTS...DAKOTAS

CITY           SKY/WX    TMP DP  RH WIND       PRES   REMARKS
WILLISTON      CLOUDY    35  30  82 CALM      29.38F
MINOT          CLOUDY    36  33  89 CALM      29.40F
DICKINSON      PTCLDY    47  27  45 S6        29.41F
BEACH            N/A     39  27  60 SE3       29.45F
CROSBY           N/A     36  32  87 CALM      29.38F
TIOGA            N/A     36  34  93 CALM      29.40F
WATFORD CITY     N/A     32  28  86 CALM      29.39F HAZE
BISMARCK       PTCLDY    55  48  77 S9        29.47S
GRAND FORKS    PTCLDY    53  48  83 S14       29.56F
FARGO          CLEAR     59  49  69 S17G29    29.60F
BUFFALO SD       N/A     54  26  34 NW5       29.41F
RAPID CITY     PTCLDY    48  32  53 CALM      29.55F
$$

REGIONAL REPORTS...WYOMING/IDAHO/WASHINGTON

CITY           SKY/WX    TMP DP  RH WIND       PRES   REMARKS
GILLETTE       CLEAR     59  30  33 S26       29.52F
SHERIDAN       CLOUDY    44  27  51 VRB3      29.48F
BUFFALO WY     CLEAR     56  20  24 W9        29.53F
CODY           CLOUDY    45  22  40 SE3       29.53F
YELLOWSTONE LA   N/A     25  22  88 CALM      29.65F
IDAHO FALLS    CLOUDY    47  34  60 SW9       29.50F
SALMON         CLOUDY    36  24  62 N3        29.35F
BOISE          LGT RAIN  43  32  65 NW10      29.66R
SPOKANE        CLOUDY    42  41  96 SW21G28   29.52R
$$

REGIONAL REPORTS...ALBERTA

CITY           SKY/WX    TMP DP  RH WIND       PRES   REMARKS
EDMONTON       CLEAR     36  32  87 W7        29.25S WCI  30
CALGARY        CLOUDY    41  30  65 N3        29.25S
MEDICINE HAT   CLOUDY    45  32  61 VRB2      29.22F
$$

REGIONAL REPORTS...SASKATCHEWAN

CITY           SKY/WX    TMP DP  RH WIND       PRES   REMARKS
SWIFT CURRENT  CLEAR     41  25  52 S7        29.29F
REGINA         MOCLDY    43  30  61 SE9       29.34S
SASKATOON      CLOUDY    41  34  75 NE3       29.31F
$$




USA.gov is the U.S. government's official web portal to all federal, state and local government web resources and services.